Time,TemperatureF,DewpointF,PressureIn,WindDirection,WindDirectionDegrees,WindSpeedMPH,WindSpeedGustMPH,Humidity,HourlyPrecipIn,Conditions,Clouds,dailyrainin,SoftwareType,DateUTC
2013-01-03 00:04:00,19.8,14.6,30.23,SSW,198,6.0,7.0,80,0.00,,,0.00,Wunderground v.1.15,2013-01-03 06:04:00,
2013-01-03 00:09:00,19.9,14.7,30.23,SSW,198,6.0,8.0,80,0.00,,,0.00,Wunderground v.1.15,2013-01-03 06:09:00,
2013-01-03 00:15:00,20.0,14.8,30.23,South,188,6.0,6.0,80,0.00,,,0.00,Wunderground v.1.15,2013-01-03 06:15:00,
2013-01-03 00:21:00,20.2,15.0,30.22,SSW,193,6.0,7.0,80,0.00,,,0.00,Wunderground v.1.15,2013-01-03 06:21:00,
2013-01-03 00:27:00,20.3,15.1,30.22,South,187,5.0,8.0,80,0.00,,,0.00,Wunderground v.1.15,2013-01-03 06:27:00,
2013-01-03 00:33:00,20.2,15.0,30.22,South,189,5.0,7.0,80,0.00,,,0.00,Wunderground v.1.15,2013-01-03 06:33:00,
2013-01-03 00:39:00,20.4,15.2,30.22,SSW,204,6.0,7.0,80,0.00,,,0.00,Wunderground v.1.15,2013-01-03 06:39:00,
2013-01-03 00:45:00,20.5,15.3,30.22,South,191,5.0,6.0,80,0.00,,,0.00,Wunderground v.1.15,2013-01-03 06:45:00,
2013-01-03 00:51:00,20.6,15.4,30.22,SSW,200,5.0,5.0,80,0.00,,,0.00,Wunderground v.1.15,2013-01-03 06:51:00,
2013-01-03 00:57:00,20.6,15.4,30.22,SSW,197,4.0,5.0,80,0.00,,,0.00,Wunderground v.1.15,2013-01-03 06:57:00,
2013-01-03 01:03:00,20.5,15.3,30.22,SSW,192,5.0,5.0,80,0.00,,,0.00,Wunderground v.1.15,2013-01-03 07:03:00,
2013-01-03 01:09:00,20.4,15.2,30.21,South,184,5.0,6.0,80,0.00,,,0.00,Wunderground v.1.15,2013-01-03 07:09:00,
2013-01-03 01:15:00,20.3,15.1,30.22,South,189,4.0,6.0,80,0.00,,,0.00,Wunderground v.1.15,2013-01-03 07:15:00,
2013-01-03 01:21:00,20.3,15.1,30.22,SSW,206,4.0,4.0,80,0.00,,,0.00,Wunderground v.1.15,2013-01-03 07:21:00,
2013-01-03 01:27:00,20.2,15.0,30.22,SSW,206,5.0,5.0,80,0.00,,,0.00,Wunderground v.1.15,2013-01-03 07:27:00,
2013-01-03 01:33:00,20.1,14.9,30.23,SSW,200,4.0,5.0,80,0.00,,,0.00,Wunderground v.1.15,2013-01-03 07:33:00,
2013-01-03 01:38:00,19.9,15.0,30.23,SSW,207,4.0,5.0,81,0.00,,,0.00,Wunderground v.1.15,2013-01-03 07:38:00,
2013-01-03 01:44:00,19.9,15.0,30.23,SW,217,5.0,5.0,81,0.00,,,0.00,Wunderground v.1.15,2013-01-03 07:44:00,
2013-01-03 01:50:00,19.8,14.9,30.23,SSW,210,5.0,5.0,81,0.00,,,0.00,Wunderground v.1.15,2013-01-03 07:50:00,
2013-01-03 01:56:00,19.7,14.8,30.23,SSW,208,4.0,5.0,81,0.00,,,0.00,Wunderground v.1.15,2013-01-03 07:56:00,
2013-01-03 02:02:00,19.4,14.5,30.23,SSW,207,4.0,5.0,81,0.00,,,0.00,Wunderground v.1.15,2013-01-03 08:02:00,
2013-01-03 02:08:00,19.1,14.2,30.23,SSW,212,4.0,5.0,81,0.00,,,0.00,Wunderground v.1.15,2013-01-03 08:08:00,
2013-01-03 02:14:00,19.0,14.4,30.24,SW,217,4.0,4.0,82,0.00,,,0.00,Wunderground v.1.15,2013-01-03 08:14:00,
2013-01-03 02:20:00,19.1,14.5,30.24,SW,225,5.0,6.0,82,0.00,,,0.00,Wunderground v.1.15,2013-01-03 08:20:00,
2013-01-03 02:26:00,19.2,14.6,30.24,SW,226,6.0,7.0,82,0.00,,,0.00,Wunderground v.1.15,2013-01-03 08:26:00,
2013-01-03 02:32:00,19.2,14.6,30.24,SW,220,6.0,7.0,82,0.00,,,0.00,Wunderground v.1.15,2013-01-03 08:32:00,
2013-01-03 02:38:00,19.2,14.9,30.25,SW,228,6.0,7.0,83,0.00,,,0.00,Wunderground v.1.15,2013-01-03 08:38:00,
2013-01-03 02:44:00,19.3,15.0,30.25,WSW,241,6.0,7.0,83,0.00,,,0.00,Wunderground v.1.15,2013-01-03 08:44:00,
2013-01-03 02:50:00,19.3,15.0,30.25,WSW,237,6.0,7.0,83,0.00,,,0.00,Wunderground v.1.15,2013-01-03 08:50:00,
2013-01-03 02:56:00,19.6,15.3,30.25,SW,225,7.0,8.0,83,0.00,,,0.00,Wunderground v.1.15,2013-01-03 08:56:00,
2013-01-03 03:01:00,19.6,15.3,30.25,SW,233,7.0,8.0,83,0.00,,,0.00,Wunderground v.1.15,2013-01-03 09:01:00,
2013-01-03 03:07:00,19.6,15.3,30.25,SW,226,6.0,9.0,83,0.00,,,0.00,Wunderground v.1.15,2013-01-03 09:07:00,
2013-01-03 03:13:00,19.8,15.7,30.25,SW,236,6.0,7.0,84,0.00,,,0.00,Wunderground v.1.15,2013-01-03 09:13:00,
2013-01-03 03:19:00,20.3,16.2,30.25,SW,230,6.0,7.0,84,0.00,,,0.00,Wunderground v.1.15,2013-01-03 09:19:00,
2013-01-03 03:25:00,20.6,16.5,30.26,SW,227,6.0,7.0,84,0.00,,,0.00,Wunderground v.1.15,2013-01-03 09:25:00,
2013-01-03 03:30:00,20.9,16.8,30.26,WSW,237,6.0,6.0,84,0.00,,,0.00,Wunderground v.1.15,2013-01-03 09:30:00,
2013-01-03 03:36:00,21.1,17.0,30.26,SW,227,6.0,7.0,84,0.00,,,0.00,Wunderground v.1.15,2013-01-03 09:36:00,
2013-01-03 03:42:00,21.3,17.2,30.26,WSW,237,6.0,6.0,84,0.00,,,0.00,Wunderground v.1.15,2013-01-03 09:42:00,
2013-01-03 03:48:00,21.4,17.3,30.26,WSW,245,6.0,8.0,84,0.00,,,0.00,Wunderground v.1.15,2013-01-03 09:48:00,
2013-01-03 03:54:00,21.4,17.3,30.25,WSW,243,6.0,7.0,84,0.00,,,0.00,Wunderground v.1.15,2013-01-03 09:54:00,
2013-01-03 04:00:00,21.4,17.3,30.26,WSW,241,6.0,6.0,84,0.00,,,0.00,Wunderground v.1.15,2013-01-03 10:00:00,
2013-01-03 04:06:00,21.4,17.3,30.26,WSW,240,6.0,7.0,84,0.00,,,0.00,Wunderground v.1.15,2013-01-03 10:06:00,
2013-01-03 04:12:00,21.5,17.4,30.25,WSW,239,6.0,7.0,84,0.00,,,0.00,Wunderground v.1.15,2013-01-03 10:12:00,
2013-01-03 04:17:00,21.5,17.4,30.25,WSW,240,6.0,8.0,84,0.00,,,0.00,Wunderground v.1.15,2013-01-03 10:17:00,
2013-01-03 04:22:00,21.5,17.4,30.25,WSW,245,7.0,7.0,84,0.00,,,0.00,Wunderground v.1.15,2013-01-03 10:22:00,
2013-01-03 04:28:00,21.4,17.3,30.25,WSW,243,7.0,7.0,84,0.00,,,0.00,Wunderground v.1.15,2013-01-03 10:28:00,
2013-01-03 04:34:00,21.2,17.1,30.25,SW,236,6.0,7.0,84,0.00,,,0.00,Wunderground v.1.15,2013-01-03 10:34:00,
2013-01-03 04:39:00,21.2,17.4,30.25,SW,234,6.0,7.0,85,0.00,,,0.00,Wunderground v.1.15,2013-01-03 10:39:00,
2013-01-03 04:45:00,21.0,17.2,30.26,SW,227,5.0,6.0,85,0.00,,,0.00,Wunderground v.1.15,2013-01-03 10:45:00,
2013-01-03 04:51:00,20.8,17.0,30.26,SW,223,6.0,6.0,85,0.00,,,0.00,Wunderground v.1.15,2013-01-03 10:51:00,
2013-01-03 04:57:00,20.6,16.8,30.26,SW,233,6.0,6.0,85,0.00,,,0.00,Wunderground v.1.15,2013-01-03 10:57:00,
2013-01-03 05:02:00,20.5,16.7,30.25,WSW,244,5.0,5.0,85,0.00,,,0.00,Wunderground v.1.15,2013-01-03 11:02:00,
2013-01-03 05:08:00,20.5,17.0,30.25,SW,230,5.0,6.0,86,0.00,,,0.00,Wunderground v.1.15,2013-01-03 11:08:00,
2013-01-03 05:14:00,20.5,17.0,30.25,WSW,237,5.0,6.0,86,0.00,,,0.00,Wunderground v.1.15,2013-01-03 11:14:00,
2013-01-03 05:19:00,20.4,16.9,30.26,WSW,242,5.0,7.0,86,0.00,,,0.00,Wunderground v.1.15,2013-01-03 11:19:00,
2013-01-03 05:25:00,20.3,16.8,30.26,WSW,248,6.0,8.0,86,0.00,,,0.00,Wunderground v.1.15,2013-01-03 11:25:00,
2013-01-03 05:31:00,20.6,17.3,30.26,WSW,242,7.0,7.0,87,0.00,,,0.00,Wunderground v.1.15,2013-01-03 11:31:00,
2013-01-03 05:37:00,20.7,17.2,30.26,WSW,240,7.0,9.0,86,0.00,,,0.00,Wunderground v.1.15,2013-01-03 11:37:00,
2013-01-03 05:43:00,20.3,16.8,30.26,SW,231,6.0,7.0,86,0.00,,,0.00,Wunderground v.1.15,2013-01-03 11:43:00,
2013-01-03 05:49:00,20.0,16.5,30.26,SW,229,6.0,7.0,86,0.00,,,0.00,Wunderground v.1.15,2013-01-03 11:49:00,
2013-01-03 05:55:00,19.8,16.6,30.26,WSW,237,6.0,7.0,87,0.00,,,0.00,Wunderground v.1.15,2013-01-03 11:55:00,
2013-01-03 06:00:00,19.7,16.5,30.26,WSW,238,5.0,7.0,87,0.00,,,0.00,Wunderground v.1.15,2013-01-03 12:00:00,
2013-01-03 06:06:00,19.7,16.7,30.26,WSW,241,6.0,7.0,88,0.00,,,0.00,Wunderground v.1.15,2013-01-03 12:06:00,
2013-01-03 06:12:00,19.6,16.6,30.27,WSW,240,7.0,8.0,88,0.00,,,0.00,Wunderground v.1.15,2013-01-03 12:12:00,
2013-01-03 06:18:00,19.9,16.9,30.27,WSW,240,7.0,8.0,88,0.00,,,0.00,Wunderground v.1.15,2013-01-03 12:18:00,
2013-01-03 06:24:00,20.0,17.0,30.28,WSW,242,7.0,8.0,88,0.00,,,0.00,Wunderground v.1.15,2013-01-03 12:24:00,
2013-01-03 06:30:00,19.8,16.8,30.28,SW,230,6.0,6.0,88,0.00,,,0.00,Wunderground v.1.15,2013-01-03 12:30:00,
2013-01-03 06:36:00,19.6,16.6,30.28,SW,233,6.0,7.0,88,0.00,,,0.00,Wunderground v.1.15,2013-01-03 12:36:00,
2013-01-03 06:42:00,19.5,16.5,30.28,SW,229,6.0,7.0,88,0.00,,,0.00,Wunderground v.1.15,2013-01-03 12:42:00,
2013-01-03 06:48:00,19.3,16.3,30.28,SW,226,6.0,7.0,88,0.00,,,0.00,Wunderground v.1.15,2013-01-03 12:48:00,
2013-01-03 06:54:00,18.8,15.6,30.29,SW,233,5.0,6.0,87,0.00,,,0.00,Wunderground v.1.15,2013-01-03 12:54:00,
2013-01-03 07:00:00,18.4,15.4,30.29,SW,225,5.0,5.0,88,0.00,,,0.00,Wunderground v.1.15,2013-01-03 13:00:00,
2013-01-03 07:06:00,18.3,15.6,30.29,SW,233,5.0,7.0,89,0.00,,,0.00,Wunderground v.1.15,2013-01-03 13:06:00,
2013-01-03 07:11:00,18.4,15.7,30.29,SW,222,5.0,7.0,89,0.00,,,0.00,Wunderground v.1.15,2013-01-03 13:11:00,
2013-01-03 07:17:00,18.4,15.7,30.29,SW,223,5.0,8.0,89,0.00,,,0.00,Wunderground v.1.15,2013-01-03 13:17:00,
2013-01-03 07:23:00,18.2,15.5,30.29,SW,219,5.0,5.0,89,0.00,,,0.00,Wunderground v.1.15,2013-01-03 13:23:00,
2013-01-03 07:29:00,18.2,15.8,30.29,SW,225,5.0,6.0,90,0.00,,,0.00,Wunderground v.1.15,2013-01-03 13:29:00,
2013-01-03 07:35:00,18.4,16.0,30.29,SW,223,6.0,9.0,90,0.00,,,0.00,Wunderground v.1.15,2013-01-03 13:35:00,
2013-01-03 07:41:00,18.5,16.1,30.29,SW,215,6.0,6.0,90,0.00,,,0.00,Wunderground v.1.15,2013-01-03 13:41:00,
2013-01-03 07:47:00,18.7,16.3,30.29,SW,226,6.0,7.0,90,0.00,,,0.00,Wunderground v.1.15,2013-01-03 13:47:00,
2013-01-03 07:53:00,19.0,16.6,30.30,SW,231,6.0,6.0,90,0.00,,,0.00,Wunderground v.1.15,2013-01-03 13:53:00,
2013-01-03 07:59:00,19.4,16.9,30.30,SW,227,6.0,7.0,90,0.00,,,0.00,Wunderground v.1.15,2013-01-03 13:59:00,
2013-01-03 08:05:00,20.0,17.8,30.30,WSW,237,6.0,6.0,91,0.00,,,0.00,Wunderground v.1.15,2013-01-03 14:05:00,
2013-01-03 08:11:00,20.8,18.6,30.30,WSW,244,5.0,8.0,91,0.00,,,0.00,Wunderground v.1.15,2013-01-03 14:11:00,
2013-01-03 08:17:00,21.4,19.2,30.30,WSW,239,6.0,9.0,91,0.00,,,0.00,Wunderground v.1.15,2013-01-03 14:17:00,
2013-01-03 08:23:00,21.7,19.2,30.30,WSW,239,7.0,8.0,90,0.00,,,0.00,Wunderground v.1.15,2013-01-03 14:23:00,
2013-01-03 08:29:00,22.1,19.6,30.30,WSW,240,6.0,8.0,90,0.00,,,0.00,Wunderground v.1.15,2013-01-03 14:29:00,
2013-01-03 08:35:00,22.6,20.4,30.31,SW,230,6.0,7.0,91,0.00,,,0.00,Wunderground v.1.15,2013-01-03 14:35:00,
2013-01-03 08:41:00,23.4,21.2,30.31,SW,221,7.0,8.0,91,0.00,,,0.00,Wunderground v.1.15,2013-01-03 14:41:00,
2013-01-03 08:47:00,24.4,22.2,30.31,SW,232,6.0,8.0,91,0.00,,,0.00,Wunderground v.1.15,2013-01-03 14:47:00,
2013-01-03 08:53:00,25.0,22.5,30.31,SW,229,6.0,7.0,90,0.00,,,0.00,Wunderground v.1.15,2013-01-03 14:53:00,
2013-01-03 08:59:00,25.5,23.0,30.32,WSW,238,6.0,7.0,90,0.00,,,0.00,Wunderground v.1.15,2013-01-03 14:59:00,
2013-01-03 09:05:00,25.9,23.1,30.32,WSW,238,6.0,8.0,89,0.00,,,0.00,Wunderground v.1.15,2013-01-03 15:05:00,
2013-01-03 09:11:00,26.3,23.5,30.32,SW,229,6.0,6.0,89,0.00,,,0.00,Wunderground v.1.15,2013-01-03 15:11:00,
2013-01-03 09:17:00,26.6,23.8,30.32,WSW,238,6.0,7.0,89,0.00,,,0.00,Wunderground v.1.15,2013-01-03 15:17:00,
2013-01-03 09:23:00,26.8,23.7,30.32,SW,226,5.0,7.0,88,0.00,,,0.00,Wunderground v.1.15,2013-01-03 15:23:00,
2013-01-03 09:29:00,27.0,23.9,30.33,SW,227,5.0,7.0,88,0.00,,,0.00,Wunderground v.1.15,2013-01-03 15:29:00,
2013-01-03 09:35:00,27.4,24.3,30.33,WSW,248,6.0,7.0,88,0.00,,,0.00,Wunderground v.1.15,2013-01-03 15:35:00,
2013-01-03 09:41:00,27.8,24.7,30.33,SW,219,6.0,8.0,88,0.00,,,0.00,Wunderground v.1.15,2013-01-03 15:41:00,
2013-01-03 09:47:00,28.0,24.9,30.33,SW,231,6.0,8.0,88,0.00,,,0.00,Wunderground v.1.15,2013-01-03 15:47:00,
2013-01-03 09:52:00,28.3,24.9,30.34,SW,226,6.0,6.0,87,0.00,,,0.00,Wunderground v.1.15,2013-01-03 15:52:00,
2013-01-03 09:58:00,28.5,24.8,30.34,SW,223,7.0,9.0,86,0.00,,,0.00,Wunderground v.1.15,2013-01-03 15:58:00,
2013-01-03 10:04:00,28.7,25.0,30.34,WSW,243,7.0,9.0,86,0.00,,,0.00,Wunderground v.1.15,2013-01-03 16:04:00,
2013-01-03 10:10:00,29.0,25.3,30.34,WSW,245,7.0,8.0,86,0.00,,,0.00,Wunderground v.1.15,2013-01-03 16:10:00,
2013-01-03 10:16:00,29.2,25.3,30.34,SW,221,8.0,11.0,85,0.00,,,0.00,Wunderground v.1.15,2013-01-03 16:16:00,
2013-01-03 10:22:00,29.4,25.4,30.35,WSW,242,8.0,11.0,85,0.00,,,0.00,Wunderground v.1.15,2013-01-03 16:22:00,
2013-01-03 10:28:00,29.7,25.7,30.35,SW,232,8.0,11.0,85,0.00,,,0.00,Wunderground v.1.15,2013-01-03 16:28:00,
2013-01-03 10:34:00,30.0,25.8,30.35,WSW,241,8.0,11.0,84,0.00,,,0.00,Wunderground v.1.15,2013-01-03 16:34:00,
2013-01-03 10:40:00,30.4,26.1,30.35,WSW,242,7.0,7.0,84,0.00,,,0.00,Wunderground v.1.15,2013-01-03 16:40:00,
2013-01-03 10:46:00,30.5,26.0,30.35,SW,234,8.0,11.0,83,0.00,,,0.00,Wunderground v.1.15,2013-01-03 16:46:00,
2013-01-03 10:52:00,30.5,26.0,30.35,WSW,256,8.0,10.0,83,0.00,,,0.00,Wunderground v.1.15,2013-01-03 16:52:00,
2013-01-03 10:58:00,30.7,26.1,30.34,WSW,245,8.0,11.0,83,0.00,,,0.00,Wunderground v.1.15,2013-01-03 16:58:00,
2013-01-03 11:04:00,31.0,26.1,30.35,WSW,248,8.0,10.0,82,0.00,,,0.00,Wunderground v.1.15,2013-01-03 17:04:00,
2013-01-03 11:10:00,31.3,26.4,30.34,SW,226,8.0,8.0,82,0.00,,,0.00,Wunderground v.1.15,2013-01-03 17:10:00,
2013-01-03 11:16:00,31.6,26.7,30.34,WSW,255,7.0,8.0,82,0.00,,,0.00,Wunderground v.1.15,2013-01-03 17:16:00,
2013-01-03 11:22:00,32.1,26.9,30.34,SW,225,7.0,9.0,81,0.00,,,0.00,Wunderground v.1.15,2013-01-03 17:22:00,
2013-01-03 11:28:00,32.3,27.1,30.34,WSW,248,8.0,11.0,81,0.00,,,0.00,Wunderground v.1.15,2013-01-03 17:28:00,
2013-01-03 11:34:00,32.5,27.0,30.33,WSW,245,8.0,12.0,80,0.00,,,0.00,Wunderground v.1.15,2013-01-03 17:34:00,
2013-01-03 11:40:00,32.5,27.0,30.33,WSW,241,9.0,11.0,80,0.00,,,0.00,Wunderground v.1.15,2013-01-03 17:40:00,
2013-01-03 11:45:00,32.5,26.7,30.33,WSW,239,9.0,11.0,79,0.00,,,0.00,Wunderground v.1.15,2013-01-03 17:45:00,
2013-01-03 11:51:00,32.7,27.2,30.33,WSW,251,8.0,9.0,80,0.00,,,0.00,Wunderground v.1.15,2013-01-03 17:51:00,
2013-01-03 11:57:00,32.7,27.2,30.33,WSW,242,8.0,10.0,80,0.00,,,0.00,Wunderground v.1.15,2013-01-03 17:57:00,
2013-01-03 12:03:00,32.9,27.4,30.33,WSW,239,8.0,10.0,80,0.00,,,0.00,Wunderground v.1.15,2013-01-03 18:03:00,
2013-01-03 12:09:00,33.0,27.5,30.33,WSW,250,8.0,11.0,80,0.00,,,0.00,Wunderground v.1.15,2013-01-03 18:09:00,
2013-01-03 12:15:00,33.5,27.7,30.32,WSW,252,8.0,11.0,79,0.00,,,0.00,Wunderground v.1.15,2013-01-03 18:15:00,
2013-01-03 12:21:00,33.6,27.8,30.32,WSW,237,8.0,8.0,79,0.00,,,0.00,Wunderground v.1.15,2013-01-03 18:21:00,
2013-01-03 12:27:00,33.5,27.7,30.32,SW,231,9.0,13.0,79,0.00,,,0.00,Wunderground v.1.15,2013-01-03 18:27:00,
2013-01-03 12:33:00,33.7,27.9,30.32,WSW,245,8.0,9.0,79,0.00,,,0.00,Wunderground v.1.15,2013-01-03 18:33:00,
2013-01-03 12:38:00,33.9,27.8,30.32,WSW,252,8.0,10.0,78,0.00,,,0.00,Wunderground v.1.15,2013-01-03 18:38:00,
2013-01-03 12:44:00,34.1,28.0,30.32,South,187,8.0,11.0,78,0.00,,,0.00,Wunderground v.1.15,2013-01-03 18:44:00,
2013-01-03 12:50:00,34.3,28.2,30.32,WSW,242,8.0,10.0,78,0.00,,,0.00,Wunderground v.1.15,2013-01-03 18:50:00,
2013-01-03 12:56:00,34.3,27.8,30.32,WSW,240,9.0,11.0,77,0.00,,,0.00,Wunderground v.1.15,2013-01-03 18:56:00,
2013-01-03 13:02:00,34.4,27.9,30.32,WSW,246,9.0,10.0,77,0.00,,,0.00,Wunderground v.1.15,2013-01-03 19:02:00,
2013-01-03 13:08:00,34.6,28.1,30.32,SW,224,9.0,11.0,77,0.00,,,0.00,Wunderground v.1.15,2013-01-03 19:08:00,
2013-01-03 13:14:00,34.8,28.6,30.32,WSW,244,8.0,10.0,78,0.00,,,0.00,Wunderground v.1.15,2013-01-03 19:14:00,
2013-01-03 13:54:00,36.2,29.7,30.32,WSW,246,8.0,9.0,77,0.00,,,0.00,Wunderground v.1.15,2013-01-03 19:54:00,
2013-01-03 13:59:00,36.5,29.3,30.32,SW,233,7.0,10.0,75,0.00,,,0.00,Wunderground v.1.15,2013-01-03 19:59:00,
2013-01-03 14:04:00,36.8,29.3,30.32,WNW,284,8.0,13.0,74,0.00,,,0.00,Wunderground v.1.15,2013-01-03 20:04:00,
2013-01-03 14:10:00,36.9,29.4,30.32,West,264,8.0,8.0,74,0.00,,,0.00,Wunderground v.1.15,2013-01-03 20:10:00,
2013-01-03 14:16:00,36.8,28.6,30.32,West,273,8.0,16.0,72,0.00,,,0.00,Wunderground v.1.15,2013-01-03 20:16:00,
2013-01-03 14:22:00,36.8,27.9,30.32,SW,230,9.0,16.0,70,0.00,,,0.00,Wunderground v.1.15,2013-01-03 20:22:00,
2013-01-03 14:28:00,36.9,28.0,30.32,WSW,252,10.0,16.0,70,0.00,,,0.01,Wunderground v.1.15,2013-01-03 20:28:00,
2013-01-03 14:34:00,36.9,28.4,30.32,WSW,242,9.0,13.0,71,0.00,,,0.01,Wunderground v.1.15,2013-01-03 20:34:00,
2013-01-03 14:40:00,36.9,28.0,30.33,West,265,7.0,9.0,70,0.00,,,0.01,Wunderground v.1.15,2013-01-03 20:40:00,
2013-01-03 14:46:00,36.9,28.4,30.33,WSW,254,8.0,14.0,71,0.04,,,0.02,Wunderground v.1.15,2013-01-03 20:46:00,
2013-01-03 14:51:00,36.8,28.3,30.33,WNW,285,8.0,12.0,71,0.04,,,0.02,Wunderground v.1.15,2013-01-03 20:51:00,
2013-01-03 14:57:00,36.5,28.0,30.33,West,264,8.0,12.0,71,0.04,,,0.02,Wunderground v.1.15,2013-01-03 20:57:00,
2013-01-03 15:03:00,36.2,27.7,30.33,WSW,258,8.0,13.0,71,0.00,,,0.03,Wunderground v.1.15,2013-01-03 21:03:00,
2013-01-03 15:08:00,35.9,27.4,30.33,WSW,252,9.0,15.0,71,0.00,,,0.03,Wunderground v.1.15,2013-01-03 21:08:00,
2013-01-03 15:14:00,35.7,27.6,30.33,West,267,8.0,11.0,72,0.00,,,0.03,Wunderground v.1.15,2013-01-03 21:14:00,
2013-01-03 15:20:00,35.5,26.7,30.34,WSW,253,9.0,12.0,70,0.00,,,0.03,Wunderground v.1.15,2013-01-03 21:20:00,
2013-01-03 15:26:00,35.5,26.3,30.34,West,271,12.0,18.0,69,0.00,,,0.03,Wunderground v.1.15,2013-01-03 21:26:00,
2013-01-03 15:32:00,35.3,25.8,30.35,WSW,256,13.0,19.0,68,0.00,,,0.03,Wunderground v.1.15,2013-01-03 21:32:00,
2013-01-03 15:38:00,35.2,25.3,30.35,West,259,13.0,19.0,67,0.00,,,0.03,Wunderground v.1.15,2013-01-03 21:38:00,
2013-01-03 15:43:00,35.2,25.3,30.35,West,276,14.0,20.0,67,0.00,,,0.03,Wunderground v.1.15,2013-01-03 21:43:00,
2013-01-03 15:49:00,35.2,26.0,30.34,WNW,293,14.0,20.0,69,0.00,,,0.03,Wunderground v.1.15,2013-01-03 21:49:00,
2013-01-03 15:55:00,35.1,26.3,30.34,WSW,252,10.0,13.0,70,0.00,,,0.03,Wunderground v.1.15,2013-01-03 21:55:00,
2013-01-03 16:00:00,35.0,26.5,30.34,West,271,9.0,9.0,71,0.00,,,0.03,Wunderground v.1.15,2013-01-03 22:00:00,
2013-01-03 16:06:00,34.7,26.6,30.34,WSW,241,8.0,9.0,72,0.00,,,0.03,Wunderground v.1.15,2013-01-03 22:06:00,
2013-01-03 16:12:00,34.6,26.5,30.35,WSW,251,6.0,6.0,72,0.00,,,0.03,Wunderground v.1.15,2013-01-03 22:12:00,
2013-01-03 16:17:00,34.3,26.5,30.35,West,262,6.0,9.0,73,0.00,,,0.03,Wunderground v.1.15,2013-01-03 22:17:00,
2013-01-03 16:23:00,34.2,26.4,30.35,WSW,253,5.0,7.0,73,0.00,,,0.03,Wunderground v.1.15,2013-01-03 22:23:00,
2013-01-03 16:29:00,34.1,26.7,30.35,WSW,250,6.0,8.0,74,0.00,,,0.03,Wunderground v.1.15,2013-01-03 22:29:00,
2013-01-03 16:35:00,34.0,26.6,30.35,West,274,6.0,7.0,74,0.00,,,0.03,Wunderground v.1.15,2013-01-03 22:35:00,
2013-01-03 16:41:00,33.9,26.8,30.35,WSW,248,5.0,5.0,75,0.00,,,0.03,Wunderground v.1.15,2013-01-03 22:41:00,
2013-01-03 16:47:00,33.9,27.1,30.35,West,259,5.0,8.0,76,0.00,,,0.03,Wunderground v.1.15,2013-01-03 22:47:00,
2013-01-03 16:53:00,33.8,27.4,30.35,WSW,243,5.0,5.0,77,0.00,,,0.03,Wunderground v.1.15,2013-01-03 22:53:00,
2013-01-03 16:59:00,33.8,27.4,30.35,WSW,254,4.0,5.0,77,0.00,,,0.03,Wunderground v.1.15,2013-01-03 22:59:00,
2013-01-03 17:05:00,33.8,27.0,30.36,WSW,250,5.0,7.0,76,0.00,,,0.03,Wunderground v.1.15,2013-01-03 23:05:00,
2013-01-03 17:11:00,33.8,27.0,30.36,WSW,245,6.0,6.0,76,0.00,,,0.03,Wunderground v.1.15,2013-01-03 23:11:00,
2013-01-03 17:17:00,33.9,27.1,30.36,WSW,254,5.0,6.0,76,0.00,,,0.03,Wunderground v.1.15,2013-01-03 23:17:00,
2013-01-03 17:23:00,33.9,27.1,30.36,West,264,5.0,5.0,76,0.00,,,0.03,Wunderground v.1.15,2013-01-03 23:23:00,
2013-01-03 17:28:00,33.9,27.1,30.36,West,265,5.0,5.0,76,0.00,,,0.03,Wunderground v.1.15,2013-01-03 23:28:00,
2013-01-03 17:34:00,33.8,27.4,30.37,West,260,4.0,5.0,77,0.00,,,0.03,Wunderground v.1.15,2013-01-03 23:34:00,
2013-01-03 17:40:00,33.7,27.3,30.37,West,266,4.0,4.0,77,0.00,,,0.03,Wunderground v.1.15,2013-01-03 23:40:00,
2013-01-03 17:46:00,33.7,27.3,30.37,West,269,4.0,4.0,77,0.00,,,0.03,Wunderground v.1.15,2013-01-03 23:46:00,
2013-01-03 17:52:00,33.6,27.2,30.37,West,279,3.0,8.0,77,0.00,,,0.03,Wunderground v.1.15,2013-01-03 23:52:00,
2013-01-03 17:58:00,33.6,26.8,30.37,WNW,289,4.0,9.0,76,0.00,,,0.03,Wunderground v.1.15,2013-01-03 23:58:00,
2013-01-03 18:04:00,33.7,26.9,30.37,WNW,285,4.0,8.0,76,0.00,,,0.03,Wunderground v.1.15,2013-01-04 00:04:00,
2013-01-03 18:10:00,33.7,26.9,30.37,West,278,6.0,6.0,76,0.00,,,0.03,Wunderground v.1.15,2013-01-04 00:10:00,
2013-01-03 18:16:00,33.7,26.9,30.37,WSW,258,6.0,8.0,76,0.00,,,0.03,Wunderground v.1.15,2013-01-04 00:16:00,
2013-01-03 18:22:00,33.7,27.3,30.37,West,266,4.0,5.0,77,0.00,,,0.03,Wunderground v.1.15,2013-01-04 00:22:00,
2013-01-03 18:28:00,33.6,27.2,30.37,West,281,5.0,8.0,77,0.00,,,0.03,Wunderground v.1.15,2013-01-04 00:28:00,
2013-01-03 18:34:00,33.5,27.4,30.37,West,274,5.0,7.0,78,0.00,,,0.03,Wunderground v.1.15,2013-01-04 00:34:00,
2013-01-03 18:40:00,33.4,27.3,30.37,West,280,5.0,7.0,78,0.00,,,0.03,Wunderground v.1.15,2013-01-04 00:40:00,
2013-01-03 18:46:00,33.3,27.5,30.38,West,267,4.0,7.0,79,0.00,,,0.03,Wunderground v.1.15,2013-01-04 00:46:00,
2013-01-03 18:52:00,33.2,27.7,30.37,West,267,4.0,7.0,80,0.00,,,0.03,Wunderground v.1.15,2013-01-04 00:52:00,
2013-01-03 18:58:00,33.1,27.6,30.38,WNW,285,4.0,7.0,80,0.00,,,0.03,Wunderground v.1.15,2013-01-04 00:58:00,
2013-01-03 19:03:00,33.0,27.5,30.38,West,273,4.0,6.0,80,0.00,,,0.03,Wunderground v.1.15,2013-01-04 01:03:00,
2013-01-03 19:09:00,33.0,27.5,30.38,West,267,5.0,7.0,80,0.00,,,0.03,Wunderground v.1.15,2013-01-04 01:09:00,
2013-01-03 19:14:00,33.0,27.5,30.38,West,267,5.0,6.0,80,0.00,,,0.03,Wunderground v.1.15,2013-01-04 01:14:00,
2013-01-03 19:20:00,32.9,27.7,30.38,West,273,4.0,4.0,81,0.00,,,0.03,Wunderground v.1.15,2013-01-04 01:20:00,
2013-01-03 19:26:00,32.8,27.3,30.38,West,277,5.0,10.0,80,0.00,,,0.03,Wunderground v.1.15,2013-01-04 01:26:00,
2013-01-03 19:32:00,32.7,27.5,30.39,WNW,298,5.0,5.0,81,0.00,,,0.03,Wunderground v.1.15,2013-01-04 01:32:00,
2013-01-03 19:38:00,32.6,27.7,30.39,WNW,301,4.0,7.0,82,0.00,,,0.03,Wunderground v.1.15,2013-01-04 01:38:00,
2013-01-03 19:44:00,32.3,27.7,30.39,WNW,300,4.0,4.0,83,0.00,,,0.03,Wunderground v.1.15,2013-01-04 01:44:00,
2013-01-03 19:50:00,32.1,27.8,30.39,West,273,3.0,5.0,84,0.00,,,0.03,Wunderground v.1.15,2013-01-04 01:50:00,
2013-01-03 19:56:00,32.0,27.4,30.39,West,281,3.0,5.0,83,0.00,,,0.03,Wunderground v.1.15,2013-01-04 01:56:00,
2013-01-03 20:02:00,31.9,27.6,30.39,West,281,3.0,4.0,84,0.00,,,0.03,Wunderground v.1.15,2013-01-04 02:02:00,
2013-01-03 20:08:00,31.9,27.6,30.39,West,273,3.0,4.0,84,0.00,,,0.03,Wunderground v.1.15,2013-01-04 02:08:00,
2013-01-03 20:14:00,31.8,27.5,30.39,West,281,4.0,4.0,84,0.00,,,0.03,Wunderground v.1.15,2013-01-04 02:14:00,
2013-01-03 20:20:00,31.8,27.5,30.39,West,281,2.0,3.0,84,0.00,,,0.03,Wunderground v.1.15,2013-01-04 02:20:00,
2013-01-03 20:26:00,31.7,27.4,30.39,WNW,283,2.0,3.0,84,0.00,,,0.03,Wunderground v.1.15,2013-01-04 02:26:00,
2013-01-03 20:32:00,31.7,27.7,30.39,West,271,2.0,4.0,85,0.00,,,0.03,Wunderground v.1.15,2013-01-04 02:32:00,
2013-01-03 20:38:00,31.7,27.7,30.39,West,275,3.0,5.0,85,0.00,,,0.03,Wunderground v.1.15,2013-01-04 02:38:00,
2013-01-03 20:44:00,31.6,27.6,30.39,West,276,4.0,7.0,85,0.00,,,0.03,Wunderground v.1.15,2013-01-04 02:44:00,
2013-01-03 20:50:00,31.6,27.3,30.39,West,271,4.0,4.0,84,0.00,,,0.03,Wunderground v.1.15,2013-01-04 02:50:00,
2013-01-03 20:55:00,31.6,27.3,30.39,West,280,3.0,8.0,84,0.00,,,0.03,Wunderground v.1.15,2013-01-04 02:55:00,
2013-01-03 21:00:00,31.6,27.3,30.39,West,264,4.0,4.0,84,0.00,,,0.03,Wunderground v.1.15,2013-01-04 03:00:00,
2013-01-03 21:06:00,31.6,27.3,30.39,West,266,4.0,5.0,84,0.00,,,0.03,Wunderground v.1.15,2013-01-04 03:06:00,
2013-01-03 21:12:00,31.6,27.3,30.39,WSW,251,4.0,5.0,84,0.00,,,0.03,Wunderground v.1.15,2013-01-04 03:12:00,
2013-01-03 21:18:00,31.6,27.6,30.39,West,269,4.0,5.0,85,0.00,,,0.03,Wunderground v.1.15,2013-01-04 03:18:00,
2013-01-03 21:24:00,31.5,27.5,30.39,West,275,3.0,4.0,85,0.00,,,0.03,Wunderground v.1.15,2013-01-04 03:24:00,
2013-01-03 21:30:00,31.5,27.5,30.39,WSW,257,3.0,3.0,85,0.00,,,0.03,Wunderground v.1.15,2013-01-04 03:30:00,
2013-01-03 21:36:00,31.4,27.7,30.40,West,260,4.0,5.0,86,0.00,,,0.03,Wunderground v.1.15,2013-01-04 03:36:00,
2013-01-03 21:42:00,31.4,27.7,30.39,West,271,4.0,6.0,86,0.00,,,0.03,Wunderground v.1.15,2013-01-04 03:42:00,
2013-01-03 21:48:00,31.4,27.7,30.40,WSW,252,4.0,6.0,86,0.00,,,0.03,Wunderground v.1.15,2013-01-04 03:48:00,
2013-01-03 21:54:00,31.4,27.7,30.40,WNW,294,4.0,5.0,86,0.00,,,0.03,Wunderground v.1.15,2013-01-04 03:54:00,
2013-01-03 22:00:00,31.3,27.3,30.40,NW,312,3.0,3.0,85,0.00,,,0.03,Wunderground v.1.15,2013-01-04 04:00:00,
2013-01-03 22:06:00,31.2,27.2,30.40,NW,319,3.0,5.0,85,0.00,,,0.03,Wunderground v.1.15,2013-01-04 04:06:00,
2013-01-03 22:12:00,31.0,27.0,30.40,North,358,4.0,9.0,85,0.00,,,0.03,Wunderground v.1.15,2013-01-04 04:12:00,
2013-01-03 22:17:00,30.7,26.4,30.40,WNW,303,5.0,9.0,84,0.00,,,0.03,Wunderground v.1.15,2013-01-04 04:17:00,
2013-01-03 22:23:00,30.3,25.8,30.40,WNW,291,5.0,6.0,83,0.00,,,0.03,Wunderground v.1.15,2013-01-04 04:23:00,
2013-01-03 22:29:00,30.0,25.8,30.40,NW,309,4.0,6.0,84,0.00,,,0.03,Wunderground v.1.15,2013-01-04 04:29:00,
2013-01-03 22:35:00,29.7,25.5,30.40,NNW,335,4.0,4.0,84,0.00,,,0.03,Wunderground v.1.15,2013-01-04 04:35:00,
2013-01-03 22:41:00,29.3,25.1,30.40,NW,312,3.0,3.0,84,0.00,,,0.03,Wunderground v.1.15,2013-01-04 04:41:00,
2013-01-03 22:47:00,28.9,24.7,30.40,WNW,302,3.0,4.0,84,0.00,,,0.03,Wunderground v.1.15,2013-01-04 04:47:00,
2013-01-03 22:53:00,28.5,24.3,30.40,NW,310,3.0,4.0,84,0.00,,,0.03,Wunderground v.1.15,2013-01-04 04:53:00,
2013-01-03 22:59:00,28.2,24.0,30.40,NW,325,2.0,4.0,84,0.00,,,0.03,Wunderground v.1.15,2013-01-04 04:59:00,
2013-01-03 23:00:00,28.1,23.9,30.40,NW,312,2.0,2.0,84,0.00,,,0.03,Wunderground v.1.15,2013-01-04 05:00:00,
2013-01-03 23:05:00,27.9,23.7,30.40,NW,307,2.0,2.0,84,0.00,,,0.03,Wunderground v.1.15,2013-01-04 05:05:00,
2013-01-03 23:07:00,27.7,23.8,30.40,WNW,294,2.0,3.0,85,0.00,,,0.03,Wunderground v.1.15,2013-01-04 05:07:00,
2013-01-03 23:09:00,27.6,23.7,30.40,WNW,291,2.0,3.0,85,0.00,,,0.03,Wunderground v.1.15,2013-01-04 05:09:00,
2013-01-03 23:15:00,27.4,23.5,30.40,WNW,285,3.0,4.0,85,0.00,,,0.03,Wunderground v.1.15,2013-01-04 05:15:00,
2013-01-03 23:21:00,27.2,23.3,30.39,WNW,287,3.0,4.0,85,0.00,,,0.03,Wunderground v.1.15,2013-01-04 05:21:00,
2013-01-03 23:26:00,27.0,23.1,30.39,NW,315,3.0,5.0,85,0.00,,,0.03,Wunderground v.1.15,2013-01-04 05:26:00,
2013-01-03 23:32:00,26.9,23.0,30.39,West,269,3.0,5.0,85,0.00,,,0.03,Wunderground v.1.15,2013-01-04 05:32:00,
2013-01-03 23:37:00,26.7,22.5,30.39,WNW,290,4.0,5.0,84,0.00,,,0.03,Wunderground v.1.15,2013-01-04 05:37:00,
2013-01-03 23:43:00,26.6,22.4,30.38,West,270,4.0,5.0,84,0.00,,,0.03,Wunderground v.1.15,2013-01-04 05:43:00,
2013-01-03 23:49:00,26.4,22.2,30.38,West,271,4.0,6.0,84,0.00,,,0.03,Wunderground v.1.15,2013-01-04 05:49:00,
2013-01-03 23:55:00,26.3,22.1,30.38,WNW,282,4.0,6.0,84,0.00,,,0.03,Wunderground v.1.15,2013-01-04 05:55:00,